Total_Precipitation_Accumulation
0.00 0.00 0.00 0.00 0.00 0.00 0.00 0.00 0.00 0.00 0.00 0.04 0.01 0.01 0.00 0.00 0.01 0.00 0.00 0.00 0.00 0.00 0.00 0.02 0.01 0.02 0.03 0.03 0.03 0.02 0.02 0.02 0.02 0.03 0.02 0.02 0.02 0.02 0.02 0.01 0.01 0.01
0.00 0.00 0.00 0.00 0.00 0.00 0.00 0.00 0.00 0.00 0.00 0.01 0.02 0.01 0.00 0.00 0.00 0.00 0.01 0.01 0.00 0.00 0.01 0.01 0.01 0.01 0.02 0.03 0.03 0.02 0.05 0.02 0.08 0.02 0.01 0.02 0.02 0.02 0.02 0.01 0.01 0.00
0.00 0.00 0.00 0.00 0.00 0.00 0.00 0.00 0.00 0.00 0.00 0.00 0.01 0.00 0.00 0.00 0.00 0.00 0.00 0.01 0.00 0.01 0.00 0.00 0.02 0.01 0.01 0.03 0.03 0.02 0.06 0.04 0.08 0.02 0.01 0.01 0.02 0.02 0.02 0.01 0.02 0.01
0.00 0.00 0.00 0.00 0.00 0.00 0.00 0.00 0.00 0.00 0.00 0.00 0.00 0.01 0.00 0.00 0.00 0.00 0.00 0.00 0.00 0.00 0.00 0.00 0.00 0.01 0.02 0.01 0.03 0.02 0.04 0.04 0.01 0.02 0.02 0.02 0.01 0.02 0.02 0.02 0.01 0.01
0.00 0.00 0.00 0.00 0.00 0.00 0.00 0.00 0.00 0.00 0.00 0.00 0.00 0.00 0.00 0.00 0.00 0.00 0.00 0.00 0.00 0.00 0.00 0.00 0.00 0.01 0.00 0.01 0.02 0.04 0.01 0.05 0.02 0.01 0.02 0.03 0.01 0.01 0.04 0.02 0.01 0.01
0.00 0.00 0.00 0.00 0.00 0.00 0.00 0.00 0.00 0.00 0.00 0.00 0.00 0.00 0.00 0.00 0.00 0.00 0.00 0.00 0.00 0.00 0.00 0.00 0.00 0.00 0.01 0.01 0.01 0.01 0.01 0.01 0.01 0.01 0.01 0.01 0.01 0.02 0.00 0.01 0.01 0.01
0.00 0.00 0.00 0.00 0.00 0.00 0.00 0.00 0.00 0.00 0.01 0.00 0.01 0.00 0.00 0.00 0.00 0.00 0.00 0.00 0.00 0.00 0.00 0.00 0.00 0.00 0.00 0.00 0.00 0.00 0.00 0.00 0.01 0.02 0.00 0.00 0.00 0.00 0.00 0.00 0.00 0.00
0.00 0.00 0.00 0.00 0.00 0.00 0.01 0.01 0.01 0.00 0.00 0.00 0.00 0.00 0.00 0.00 0.00 0.00 0.00 0.00 0.00 0.00 0.00 0.00 0.00 0.00 0.00 0.00 0.00 0.00 0.00 0.00 0.01 0.00 0.01 0.00 0.00 0.00 0.00 0.00 0.00 0.00
0.00 0.00 0.00 0.00 0.00 0.00 0.01 0.01 0.00 0.01 0.00 0.00 0.00 0.00 0.00 0.00 0.00 0.00 0.00 0.00 0.00 0.00 0.00 0.00 0.01 0.01 0.00 0.00 0.00 0.00 0.00 0.00 0.00 0.00 0.00 0.00 0.00 0.00 0.00 0.00 0.00 0.00
0.03 0.00 0.00 0.00 0.00 0.03 0.03 0.10 0.04 0.01 0.01 0.00 0.00 0.00 0.00 0.00 0.00 0.00 0.00 0.00 0.01 0.02 0.03 0.03 0.02 0.02 0.02 0.00 0.00 0.00 0.00 0.00 0.00 0.00 0.00 0.00 0.00 0.00 0.00 0.00 0.00 0.00
0.08 0.03 0.00 0.01 0.03 0.08 0.05 0.05 0.04 0.05 0.03 0.01 0.00 0.01 0.03 0.06 0.04 0.04 0.08 0.11 0.12 0.09 0.07 0.06 0.04 0.02 0.00 0.00 0.00 0.00 0.00 0.00 0.00 0.00 0.00 0.00 0.00 0.00 0.00 0.00 0.00 0.00
0.08 0.05 0.03 0.03 0.05 0.03 0.06 0.02 0.01 0.00 0.00 0.01 0.02 0.05 0.06 0.07 0.10 0.16 0.19 0.18 0.14 0.11 0.08 0.06 0.02 0.00 0.00 0.00 0.00 0.00 0.00 0.00 0.00 0.00 0.00 0.00 0.00 0.00 0.00 0.00 0.00 0.00
0.35 0.36 0.17 0.05 0.03 0.05 0.16 0.22 0.12 0.01 0.02 0.03 0.04 0.11 0.22 0.20 0.24 0.23 0.20 0.17 0.13 0.10 0.05 0.01 0.00 0.00 0.00 0.00 0.00 0.00 0.00 0.00 0.00 0.00 0.00 0.00 0.00 0.00 0.00 0.00 0.00 0.01
0.20 0.67 0.74 0.29 0.25 0.17 0.21 0.13 0.23 0.14 0.12 0.15 0.29 0.30 0.29 0.31 0.28 0.26 0.22 0.15 0.07 0.02 0.00 0.01 0.00 0.00 0.00 0.00 0.00 0.00 0.00 0.00 0.00 0.00 0.00 0.00 0.01 0.01 0.00 0.00 0.00 0.00
0.30 0.54 0.91 0.53 0.18 0.42 0.34 0.21 0.35 0.30 0.35 0.37 0.26 0.38 0.41 0.33 0.22 0.14 0.07 0.04 0.02 0.01 0.00 0.00 0.00 0.00 0.00 0.00 0.00 0.00 0.00 0.00 0.00 0.00 0.00 0.00 0.02 0.03 0.01 0.01 0.00 0.00
0.15 0.38 0.55 0.80 0.51 1.44 1.84 0.57 0.60 0.70 0.67 0.53 0.36 0.35 0.25 0.16 0.11 0.07 0.05 0.03 0.01 0.01 0.01 0.00 0.00 0.00 0.00 0.00 0.00 0.00 0.00 0.00 0.00 0.00 0.00 0.00 0.00 0.00 0.01 0.00 0.00 0.02
0.38 0.22 0.30 0.35 1.15 1.23 1.25 1.37 0.80 0.38 0.28 0.30 0.25 0.16 0.13 0.13 0.11 0.10 0.07 0.04 0.02 0.01 0.01 0.00 0.00 0.00 0.00 0.00 0.00 0.00 0.00 0.00 0.00 0.00 0.00 0.00 0.01 0.00 0.01 0.00 0.00 0.00
0.79 0.82 0.68 0.30 0.54 1.25 1.28 1.07 0.78 0.47 0.26 0.12 0.09 0.09 0.11 0.10 0.12 0.12 0.09 0.06 0.04 0.02 0.01 0.00 0.00 0.00 0.00 0.00 0.00 0.00 0.00 0.00 0.00 0.00 0.00 0.00 0.00 0.00 0.00 0.01 0.01 0.04
0.68 0.18 0.24 0.39 1.05 1.23 0.84 1.15 0.55 0.54 0.60 0.49 0.17 0.22 0.11 0.10 0.13 0.14 0.12 0.09 0.05 0.03 0.02 0.01 0.01 0.00 0.00 0.00 0.00 0.00 0.00 0.00 0.00 0.00 0.00 0.00 0.00 0.00 0.00 0.01 0.06 0.08
0.26 0.25 0.32 1.11 1.31 1.72 1.06 0.30 0.42 0.19 0.41 0.65 0.43 0.21 0.30 0.20 0.16 0.15 0.13 0.11 0.08 0.06 0.05 0.03 0.02 0.01 0.01 0.00 0.00 0.01 0.01 0.01 0.00 0.01 0.00 0.01 0.01 0.02 0.01 0.00 0.02 0.05
0.07 0.17 0.49 1.00 1.25 1.19 0.70 0.60 0.27 0.33 0.28 0.45 0.47 0.67 0.69 0.50 0.23 0.19 0.07 0.06 0.05 0.05 0.05 0.05 0.04 0.02 0.01 0.01 0.00 0.00 0.00 0.00 0.00 0.01 0.02 0.02 0.02 0.02 0.02 0.02 0.14 0.47
0.20 0.12 0.17 1.04 0.77 0.70 0.39 0.17 0.26 0.42 0.56 0.99 1.02 0.47 0.29 0.23 0.09 0.05 0.10 0.22 0.16 0.15 0.12 0.08 0.05 0.03 0.01 0.01 0.01 0.02 0.01 0.02 0.02 0.01 0.02 0.01 0.02 0.01 0.02 0.07 0.12 0.37
0.11 0.21 0.26 0.24 0.60 0.72 0.53 0.39 0.56 0.79 0.79 1.29 0.82 0.13 0.17 0.05 0.04 0.06 0.05 0.11 0.09 0.04 0.03 0.03 0.05 0.05 0.05 0.04 0.04 0.02 0.02 0.02 0.01 0.01 0.04 0.03 0.05 0.08 0.04 0.12 0.24 0.20
0.08 0.07 0.05 0.05 0.07 0.55 0.77 0.84 0.64 0.75 0.96 0.74 0.23 0.21 0.04 0.05 0.05 0.05 0.06 0.06 0.03 0.04 0.04 0.06 0.06 0.03 0.01 0.01 0.01 0.01 0.02 0.03 0.02 0.03 0.07 0.06 0.08 0.30 0.30 0.25 0.05 0.05
0.08 0.05 0.06 0.06 0.08 0.21 0.63 1.25 0.84 0.50 0.36 0.48 0.14 0.10 0.06 0.06 0.04 0.06 0.08 0.04 0.02 0.07 0.04 0.05 0.06 0.05 0.03 0.02 0.02 0.08 0.07 0.10 0.13 0.10 0.09 0.27 0.16 0.29 0.23 0.07 0.12 0.06
0.23 0.16 0.04 0.05 0.07 0.08 0.55 1.15 1.55 0.86 0.30 0.20 0.16 0.34 0.11 0.09 0.05 0.11 0.08 0.09 0.07 0.11 0.07 0.02 0.04 0.08 0.06 0.11 0.19 0.12 0.09 0.09 0.10 0.08 0.08 0.05 0.05 0.11 0.18 0.16 0.05 0.09